VOLGA R/B, 44425

Orbit data source: Space-Track

VOLGA R/B, 44425 is space debris in SSO originally from a launch on Wed, 10 Jul 2019 UTC launched from the Plesetsk Missile And Space Complex (PKMTR). Debris objects in space refer to the collection of defunct objects orbiting the Earth. Examples of debris include non-operational satellites, rocket bodies, and fragments generated from explosions, collisions, or faulty payload assembly.

Loading next visibility...
VOLGA R/B details
Identifier
44425, 2019-039E
Orbit
SSO
Last TLE update9 hours ago
Origin
Flag of CISRVSN RF (CIS)
ManufacturerTsSKB-Progress
MissionSpacecraft
Bus & MotorVOLGA, Unknown motor
Mass~1,120 kg wet, 1,120 kg dry
Launch date (UTC)
2019-07-10 (5 years ago)
Launch vehicleUnknown
Launch site
Plesetsk Missile And Space Complex (PKMTR)
Object type
Payload
Rocket body
Debris
Shape & HBRCyl, 3.2 m
Radar Cross Section6.585 m², Large (>1 m²)

Expand to show TLE details & history

TLE from 9 hours ago
0 VOLGA R/B
1 44425U 19039E   24361.29227328  .00052204  00000-0  62418-3 0  9999
2 44425  97.4480 105.5076 0011923 196.8356 163.2507 15.60761041304980
Epoch: 2024-12-26T07:00Z
Definitive object data (Epoch: 2024-12-26T07:00:52.411Z)
Latitude-0.00002°
Longitude-94.98454°
Altitude396.326 km
Speed7.668 km/s
True Right ascension07h 02m 01s
True Declination0° 00' 00"
Sunlit
Object was in full shadow at TLE epoch
Visualization TLE readout
Latitude51.3916°
Longitude-103.94031°
Altitude400.179 km
Speed7.672 km/s
Apparent Right ascension05h 02m 23s
Apparent Declination7° 56' 48"
Sunlit
Object is in full shadow
Visualization observer readout
Local Sidereal Time15:50:17
Azimuth336.666° NNW
Elevation-39.319°
Doppler factor1
Orbital elements
Apogee altitude390.432 km
Perigee altitude374.311 km
Semi-major axis6,760.508 km
Eccentricity0.0011923
Inclination97.448°
RAAN105.5076°
Arg. of periapsis196.8356°
True anomaly163.29002°
Mean anomaly163.2507°
Eccentric anomaly163.27036°
Mean motion3.90458 °/min
BSTAR0.00062418
Orbital period92.2 mins
Loading maneuver chart data...

VOLGA R/B Visibility forecast

Observer location: undefined°, undefined

Span
Click to sort rows by Start time (UTC) header in descending order
Start Az.
Max El. time (UTC)
Max El. Az.
Max El.
End time (UTC)
End Az.
5 mins2024-12-26 19:53:06.991Z23.598° NE2024-12-26 19:55:06.991Z74.027° E38.712°2024-12-26 19:58:06.991Z180.036° SSW
|